Location: Asheville, NC
(35.6000°N, 82.5500°W)
Time: 10:49:56
(UTC-05:00)

AAUSAT CUBESAT 2 - Visible Passes

Search period start: 19 February 2018 00:00
Search period end: 01 March 2018 00:00
Orbit: 576 x 593 km, 97.5° (Epoch: 18 February)

Date Brightness Start Highest point End Pass type
(mag) Time Alt. Az. Time Alt. Az. Time Alt. Az.
19 Feb ? 19:58:32 10° S 20:02:25 43° W 20:06:20 10° NNW visible
20 Feb ? 20:05:04 10° SSW 20:08:50 36° W 20:12:37 10° NNW visible
21 Feb ? 18:37:19 10° ESE 18:40:04 18° ENE 18:42:48 10° NNE visible
21 Feb ? 20:11:39 10° SSW 20:15:15 30° W 20:18:52 10° NW visible
22 Feb ? 18:43:20 10° ESE 18:46:24 21° ENE 18:49:28 10° NNE visible
22 Feb ? 20:18:17 10° SSW 20:21:40 25° W 20:25:04 10° NW visible
23 Feb ? 18:49:24 10° SE 18:52:44 25° ENE 18:56:04 10° NNE visible
23 Feb ? 20:24:58 10° SW 20:28:05 21° W 20:31:13 10° NW visible
24 Feb ? 18:55:32 10° SE 18:59:04 29° ENE 19:02:38 10° NNE visible
24 Feb ? 20:31:44 10° SW 20:34:31 18° W 20:37:18 10° NW visible
25 Feb ? 19:01:42 10° SE 19:05:25 35° ENE 19:09:09 10° N visible
25 Feb ? 20:38:37 10° SW 20:40:57 15° W 20:43:17 10° WNW visible
26 Feb ? 19:07:56 10° SE 19:11:46 41° ENE 19:15:39 10° N visible
26 Feb ? 20:45:41 10° WSW 20:47:23 12° W 20:49:04 10° WNW visible
27 Feb ? 19:14:11 10° SSE 19:18:07 50° ENE 19:22:07 10° N visible
28 Feb ? 19:20:28 10° SSE 19:24:29 61° ENE 19:28:33 10° N visible
